Flag for U.S.A. Weather past 2 weeks in Prescott, Arizona, U.S.A.

Now
86 °F

Overcast.


Feels Like: 83 °F
Forecast: 65 / 86 °F
Wind: No wind

Location: Love Field

Current Time: Jul 29, 2015 at 3:23:29 PM

Latest Report: Jul 29, 2015 at 1:53 PM


Visibility: 10 mi

Pressure: 29.94 "Hg (24.90 "Hg at 1635m altitude)

Humidity: 22%

Dew point: 43 °F

Location of PrescottLocation

Historic Weather in Prescott — Graph

°F

Prescott temperature yesterday

Maximum temperature yesterday: 90 °F (at 2:53 PM)
Minimum temperature yesterday: 60 °F (at 5:53 AM)
Average temperature yesterday: 78 °F

Past Weeks' High & Low Weather Summary

 TemperatureHumidityPressure
High91 °F (Jul 16, 3:53 PM)100% (Jul 18, 7:01 PM)30.29 "Hg (Jul 18, 7:01 PM)
Low58 °F (Jul 23, 5:53 AM)10% (Jul 25, 4:53 PM)29.75 "Hg (Jul 14, 4:53 PM)
Average75 °F43%29.90 "Hg
* Reported Jul 14 1:53 PM — Jul 29 1:53 PM, Prescott, Weather by CustomWeather, © 2015

Note: Actual official high and low records may vary slightly from our data, if they occured in-between our weather recording intervals... More about our weather records

Advertising

Prescott weather history for previous 24 hours

 ConditionsComfort  
Time TempWeatherWind HumidityBarometerVisibility
1:53 PM
Wed, Jul 29
86 °FSunny.No wind22%29.94 "Hg10 mi
12:53 PM82 °FPartly sunny.5 mph33%29.96 "Hg10 mi
11:53 AM83 °FScattered clouds.9 mph32%29.96 "Hg10 mi
10:53 AM81 °FScattered clouds.3 mph42%29.97 "Hg10 mi
9:53 AM79 °FScattered clouds.3 mph42%29.98 "Hg10 mi
8:53 AM78 °FScattered clouds.5 mph46%29.97 "Hg10 mi
7:53 AM78 °FSunny.No wind48%29.95 "Hg10 mi
6:53 AM73 °FPassing clouds.No wind59%29.93 "Hg10 mi
5:53 AM70 °FPassing clouds.7 mph68%29.93 "Hg10 mi
4:53 AM69 °FClear.9 mph68%29.91 "Hg10 mi
3:53 AM71 °FClear.7 mph63%29.89 "Hg10 mi
2:53 AM72 °FClear.7 mph59%29.90 "Hg10 mi
1:53 AM73 °FPassing clouds.3 mph51%29.90 "Hg10 mi
12:53 AM76 °FPassing clouds.7 mph29%29.89 "Hg10 mi
11:53 PM
Tue, Jul 28
77 °FPassing clouds.3 mph28%29.89 "Hg10 mi
10:53 PM78 °FClear.5 mph23%29.88 "Hg10 mi
9:53 PM79 °FPassing clouds.8 mph22%29.87 "Hg10 mi
8:53 PM80 °FClear.3 mph22%29.85 "Hg10 mi
7:53 PM83 °FClear.9 mph19%29.84 "Hg10 mi
6:53 PM87 °FPassing clouds.8 mph17%29.82 "Hg10 mi
5:53 PM88 °FPassing clouds.9 mph16%29.83 "Hg10 mi
4:53 PM89 °FPassing clouds.7 mph17%29.82 "Hg10 mi
3:53 PM89 °FPassing clouds.3 mph19%29.83 "Hg10 mi
Weather by CustomWeather, © 2015

See weather overviewHow to use our weather pages